Location: Unspecified
(57.6483°N, 3.3184°W)
Time: 09:59:00
(UTC+00:00)

BlueWalker 3 - Pass Details

Date: 26 January 2026
Orbit: 450 x 461 km, 53.2° (Epoch: 11 February)

Event Time Altitude Azimuth Distance (km) Brightness Sun altitude
Rises 17:36:55 0° 210° (SSW) 2,451 6.3 -9.3°
Reaches altitude 10° 17:39:34 10° 190° (S) 1,581 4.9 -9.6°
Maximum altitude 17:41:56 17° 148° (SSE) 1,217 3.8 -9.9°
Enters shadow 17:44:16 10° 107° (ESE) 1,574 4.0 -10.2°
